Starlink 11417

operational
NORAD ID: 62983 Int'l Des: 2025-031 Owner: SPXS Country: US Constellation: starlink
LEOCIRCULAR

Über Starlink 11417

Beschreibung wird geladen...

Live-Position

3D-Globus wird geladen...

Nächste Überflüge

Höhenverlauf

Altitude vs Time

uPlot chart will show altitude changes over time

Zweizeiliger Elementsatz

1 62983U 25031C 25351.44964460 .00168539 00000-0 12863-2 0 9996
2 62983 42.9989 137.5836 0001714 256.0784 103.9893 15.70917120 49806
Epoch: 17. Dez. 2025 • Age: 31 hours

Aktueller Status

Höhe 354.6 km
Geschwindigkeit 7.70 km/s
Subsatellitenpunkt 1.22°N, 50.08°W
Startdatum 11. Feb. 2025
Alter 0.8 years
Typ internet

Technische Details

Klassifizierung Payload
Masse 960.00 kg
Trockenmasse 910.00 kg
Gesamtmasse 960.00 kg
Länge 0.30 m
Durchmesser 4.10 m
Spannweite 29.00 m
Form Box + pan
Hersteller SPXS
Bus-Typ Starlink V2MD
Phasenstatus In Orbit
Besitzer/Staat SPXS/US

Große Konstellationen

Loading constellations...